星链-36827(STARLINK-36827)

导读

STARLINK-36827是美国太空探索技术公司SpaceX星链星座的组网卫星,于2026年2月22日发射入轨。星链星座旨在构建全球卫星互联网通信系统,为全球偏远地区、海洋空域等场景提供高速低延迟网络接入服务,这颗卫星承担着补充完善星座覆盖密度、提升星座服务能力的任务。

基本信息
目录编号:
67908
目录名称:
STARLINK-36827
国际标识:
2026-036E
轨道中心:
EARTH
卫星名称:
星链-36827
卫星全名:
星链-36827(STARLINK-36827)
卫星状态:
在轨 (已飞行203 天)
发射日期:
2026-02-22 UTC
国别 :
美国 (US)
星等 :
--
该卫星已列入 空间交会检测服务 Space Conjunction Data Service (SCDS) ,当前飞行风险评估等级: 高风险
轨道信息
数据来源 国际轨道数据 AOE轨道数据
星历时间 2026-09-12T15:53:58+0800
1天前
查看轨道信息
2026-09-07T02:00:00+0800
6天前
查看轨道信息
半长轴 6861.167km 6861.165km
偏心率 0.0001108 0.0001149
轨道倾角 42.997° 43.001°
近地点辐角 272.413° 246.995°
升交点赤经 271.442° 302.952°
平近点角 87.660° 355.865°
近地点 482.269km 482.239km
远地点 483.791km 483.817km
周期 94.266分钟 94.266分钟
每日圈数 15.275867 15.275873
详细信息
固有亮度:
5
最大亮度:
2.5
卫星平台:
Starlink V1.0
覆盖范围:
全球
运营商:
太空探索技术公司
运营商所在国:
美国
制造商(研发单位):
太空探索技术公司
制造商所在国:
美国
使用方式:
暂无
卫星简介
Starlink 计划是 SpaceX 推出的全球卫星互联网项目,通过发射低轨道卫星,为全球尤其是偏远地区提供高速、低延迟的互联网服务。自 2019 年起,Starlink 已部署数千颗卫星,旨在缩小全球数字鸿沟,推动互联网普及。该项目还为军事、航空等行业提供通信支持,带来广泛经济效益。
2D轨道图
3D轨道图
轨道高度分析图
轨道倾角分析图
轨道综合分析图
查看轨道综合分析图
交会数据列表
事件ID 空间交会对象 最接近时刻(TCA) 交会距离 交会风险概率(CRP) 交会风险指数(CRI) 操作
CDM_260915-022105-549306-790821
2026-09-15T
02:21:56+0000
0.392 km
远距离
2.368196E-4 高风险 0.82
CDM_260915-035605-549306-790821
2026-09-15T
03:56:05+0000
1.838 km
极远距离
2.348969E-6 低风险 0.42
与全量物体交会距离演化趋势
与全量物体交会风险概率演化趋势